Wind_Speed
24 25 26 27 27 27 28 28 29 28 27 26 27 28 28 29 29 29 29 29 29 29 30 31 32 32 32 33 32 32 32 32 32 32 33 34 35 35 36 36 37 37 38 39
24 24 25 26 26 26 27 27 28 27 27 26 27 28 29 29 29 29 29 29 29 29 30 31 31 31 32 32 32 32 32 32 32 32 33 33 34 35 35 35 36 36 37 37
25 24 26 26 24 25 25 25 26 26 25 25 26 27 28 28 29 29 29 29 29 30 30 30 31 31 31 31 31 31 31 32 32 32 32 32 33 34 35 35 35 35 36 36
24 25 26 25 24 24 25 25 25 26 26 26 26 27 27 28 29 29 30 29 30 30 31 31 31 31 31 30 30 31 31 31 32 32 32 31 32 32 32 33 33 34 34 34
23 24 25 24 23 24 24 24 25 26 26 27 28 28 28 28 29 30 30 30 30 30 31 31 31 31 30 30 30 30 30 30 31 31 31 31 31 30 31 31 32 32 32 32
23 23 23 22 22 23 23 23 24 25 25 26 27 28 28 29 30 30 31 31 31 31 31 31 30 30 29 29 29 29 29 29 30 30 30 29 29 29 29 29 30 30 30 30
22 22 22 21 21 22 22 23 24 25 25 26 27 27 27 28 29 30 31 31 31 31 31 31 31 30 29 29 28 28 29 29 29 29 28 28 28 28 27 27 27 28 28 29
22 23 22 21 21 21 22 24 24 25 25 25 26 26 27 27 27 28 29 30 30 30 30 30 30 29 29 28 28 28 28 28 28 27 26 26 26 26 25 25 25 26 27 27
23 23 22 22 22 22 23 24 25 25 26 26 25 25 25 26 26 27 27 28 28 28 28 27 27 27 27 28 28 28 27 27 26 25 25 24 24 24 24 24 25 25 25 26
23 22 22 21 22 23 23 23 24 24 24 24 23 23 24 24 25 25 25 26 26 25 25 24 24 25 25 26 26 26 26 25 25 24 23 23 23 23 23 24 24 23 24 24
22 21 21 21 22 22 22 22 22 22 22 22 22 22 22 22 23 23 23 23 22 22 22 21 21 22 22 23 24 24 23 23 23 23 22 22 22 22 22 22 22 22 22 22
20 19 19 19 19 20 20 21 21 21 21 21 22 22 22 22 23 22 22 21 21 20 20 19 19 20 20 21 21 21 21 21 21 20 20 20 20 20 20 21 21 21 21 21
20 20 19 18 19 19 20 20 21 21 21 21 22 22 23 23 23 22 21 21 20 18 18 18 18 18 18 19 19 19 19 19 19 19 18 18 18 18 19 19 19 18 18 18
20 19 19 18 18 19 20 20 21 21 22 22 22 23 23 22 22 21 20 19 18 17 17 16 16 17 17 17 18 18 17 17 17 18 17 17 17 17 17 17 17 17 17 17
19 19 19 19 19 19 19 20 20 21 22 22 22 22 22 21 20 18 18 16 16 15 15 15 15 16 16 16 16 17 17 17 17 17 16 16 16 16 16 16 16 16 17 16
18 17 18 19 19 19 20 20 20 20 20 21 21 21 20 19 18 17 16 14 14 15 15 15 14 14 15 15 16 16 16 16 16 16 15 14 14 14 14 14 14 14 15 15
18 18 18 18 18 19 19 20 20 20 20 20 20 20 19 18 17 16 15 15 15 14 15 15 15 14 14 14 14 15 15 15 15 14 14 14 13 13 13 13 13 13 13 13
18 18 17 18 18 18 19 20 20 19 20 20 20 19 18 17 16 15 15 15 14 14 14 14 13 13 13 13 13 14 14 14 13 13 13 13 12 12 12 12 12 12 12 13
17 17 17 17 17 18 18 19 18 18 18 18 17 16 16 15 15 14 14 14 14 13 13 13 13 12 13 13 13 13 13 13 13 13 12 12 12 12 12 12 12 12 12 12
16 16 16 16 17 17 18 18 18 17 17 16 15 14 14 14 13 13 13 13 13 13 12 12 13 12 13 13 12 12 12 12 12 12 12 12 12 12 12 12 12 12 12 12
16 16 16 16 17 17 17 17 17 16 15 15 14 14 13 13 13 13 12 12 12 12 13 13 13 13 13 13 12 12 12 13 13 13 13 13 13 12 12 12 12 12 12 12
16 16 16 16 17 17 17 17 16 15 14 14 14 14 13 13 13 13 13 12 12 12 13 13 13 13 13 13 13 12 13 13 13 13 13 14 13 13 13 13 13 12 12 11
16 17 17 17 17 16 16 16 15 14 14 14 13 13 13 13 13 13 12 12 12 12 12 12 12 12 12 12 13 13 13 13 13 13 13 14 14 14 14 13 13 12 12 12
17 18 18 17 16 16 15 15 15 14 14 13 13 13 13 13 13 12 12 12 12 12 12 13 12 12 12 12 12 12 12 13 13 13 13 13 14 14 14 14 14 13 13 12
17 17 17 17 16 16 16 15 15 14 14 14 14 14 14 14 13 12 12 12 12 12 12 12 12 11 12 11 12 12 13 13 13 14 14 15 14 14 14 14 14 14 13 13
16 17 16 16 15 15 15 15 15 15 15 14 14 14 14 13 13 13 12 12 12 12 12 11 11 11 12 12 12 13 13 14 14 14 14 14 14 14 14 14 14 14 14 14
16 15 14 14 14 14 14 14 14 14 14 14 13 13 13 13 12 12 12 12 12 12 12 12 12 12 12 12 12 13 13 14 14 14 14 14 14 14 14 14 13 14 14 13
Wind_Direction
267 266 263 262 261 260 260 261 263 265 267 268 268 269 268 268 268 266 266 267 267 267 266 266 267 268 268 268 267 265 264 264 265 266 267 268 269 269 270 272 273 274 275 276
267 265 263 262 262 262 262 262 264 265 266 267 267 269 270 269 268 267 267 267 267 267 266 266 267 268 268 268 266 264 263 263 265 267 268 269 270 271 271 273 274 276 277 278
266 265 263 263 264 263 263 264 265 266 267 267 268 270 271 271 270 269 267 268 268 267 267 268 268 269 269 267 265 264 264 264 266 268 269 270 271 272 273 274 276 278 279 279
268 265 266 267 266 264 264 265 267 267 268 270 272 273 273 273 272 271 270 269 269 268 268 269 270 270 268 266 265 265 265 266 268 270 271 271 273 273 274 275 277 279 279 279
269 269 269 268 269 269 267 266 268 270 270 271 273 274 274 274 274 273 271 270 270 270 270 270 271 269 268 266 266 265 265 266 268 269 271 273 274 274 275 277 279 279 279 279
269 270 272 272 271 270 270 269 268 271 272 273 274 275 275 275 275 274 272 272 271 271 271 271 271 269 268 266 265 265 265 266 268 270 272 274 274 275 276 278 278 278 279 280
269 270 271 274 273 272 271 272 272 273 275 276 278 278 277 277 276 276 275 275 274 272 272 273 271 268 266 265 264 264 266 268 269 270 271 273 274 276 277 278 279 279 280 281
268 269 273 276 274 274 274 274 275 275 276 277 279 279 279 279 278 278 278 277 275 274 273 273 270 266 264 264 264 264 266 269 269 269 270 272 274 275 277 278 279 279 280 281
272 273 275 275 277 276 275 275 275 276 277 278 279 280 282 282 281 280 280 279 277 274 273 270 267 265 263 262 263 264 266 268 269 269 270 272 274 275 276 278 279 280 280 281
274 274 276 277 277 277 278 278 278 279 280 279 280 281 284 285 285 284 282 281 279 274 271 267 265 263 262 260 261 263 266 267 269 270 270 273 275 276 277 278 279 280 281 282
276 276 276 277 279 280 279 280 280 282 281 280 281 283 286 288 288 287 285 283 280 274 268 265 263 262 261 260 260 261 263 265 267 269 270 272 274 275 277 279 280 281 282 283
278 278 277 279 279 279 279 280 279 280 280 281 284 286 288 289 289 288 286 284 281 275 268 264 263 262 262 260 259 260 262 264 266 268 269 270 273 276 279 279 280 280 282 284
277 276 278 280 279 277 276 278 280 281 280 283 287 288 289 290 290 289 286 283 278 272 267 264 262 261 262 260 257 259 261 263 264 266 269 271 273 276 278 280 281 281 282 284
277 278 279 280 279 278 278 279 281 283 282 284 287 288 288 290 290 288 285 281 274 269 266 263 261 261 263 261 258 257 258 260 262 265 268 270 273 275 277 279 280 280 282 284
275 276 278 279 278 279 281 282 284 285 284 284 286 288 289 289 288 285 282 276 270 267 264 262 261 261 262 260 257 256 258 260 263 266 268 270 272 275 278 280 279 281 282 283
275 277 279 279 277 279 282 284 285 286 287 285 286 287 287 286 285 280 276 272 271 267 264 262 261 262 261 259 258 258 259 259 262 265 268 269 273 277 279 282 281 281 281 282
275 278 280 279 279 280 281 284 286 287 288 285 284 285 284 283 280 276 272 272 271 268 263 261 261 260 257 255 255 256 257 257 259 263 268 271 274 277 280 283 282 282 283 284
278 280 281 280 281 282 284 287 287 287 288 286 283 281 280 278 274 270 269 270 268 264 260 259 257 255 253 251 250 252 254 256 257 260 267 270 273 277 282 283 282 284 286 285
280 279 281 283 284 284 286 288 288 290 290 287 283 280 278 275 271 269 269 267 264 261 258 257 255 251 250 250 250 251 253 255 257 259 264 267 271 277 282 284 283 283 285 286
280 280 281 283 284 285 287 289 289 289 288 285 282 280 278 276 272 270 268 264 259 256 255 255 252 251 250 249 250 251 253 256 257 258 261 265 269 275 280 283 283 284 285 285
281 281 280 282 284 286 288 289 290 289 289 286 283 280 278 275 271 269 268 262 257 255 255 253 251 250 250 249 250 252 254 256 256 257 261 264 268 273 278 280 280 282 283 284
280 280 280 281 282 285 287 289 288 287 287 287 283 279 276 273 269 269 269 264 259 257 255 251 249 248 247 248 251 254 255 256 256 259 263 266 268 272 275 277 278 279 279 281
282 281 282 284 284 286 287 287 287 286 286 286 284 280 275 271 269 269 268 263 259 256 252 249 247 247 248 251 254 255 256 257 259 261 264 266 267 270 272 274 275 276 276 278
282 283 285 285 284 283 284 285 285 285 285 284 283 281 277 273 270 268 264 260 257 254 251 249 249 249 250 252 253 255 257 260 262 265 266 267 269 271 271 272 272 272 272 275
285 285 285 284 282 282 283 283 283 282 280 281 282 280 275 272 269 266 262 257 254 251 248 249 249 248 249 250 252 256 259 261 265 268 268 267 269 271 271 270 270 269 270 271
286 287 285 284 282 282 283 282 280 278 277 278 278 278 274 270 266 261 257 254 251 247 245 246 250 250 250 252 257 260 262 265 268 269 270 269 269 270 271 271 269 267 266 267
285 285 284 284 284 284 284 283 281 279 278 277 277 276 274 270 266 260 254 251 249 247 246 247 250 250 251 256 262 265 266 268 270 270 269 269 269 270 272 274 271 266 264 266
Height
5590 5591 5591 5592 5593 5593 5593 5593 5594 5596 5596 5597 5595 5594 5594 5594 5593 5593 5594 5593 5593 5593 5593 5592 5592 5591 5591 5590 5590 5590 5590 5590 5590 5590 5590 5589 5589 5589 5588 5587 5586 5585 5585 5583
5583 5583 5583 5583 5585 5585 5585 5586 5586 5586 5588 5588 5586 5586 5586 5585 5585 5585 5585 5585 5584 5584 5583 5583 5582 5582 5581 5581 5580 5580 5580 5581 5581 5581 5580 5580 5579 5579 5578 5577 5576 5575 5574 5573
5576 5576 5575 5576 5579 5578 5578 5578 5578 5578 5580 5579 5578 5578 5578 5577 5576 5576 5576 5576 5575 5575 5574 5574 5573 5573 5572 5571 5571 5571 5571 5571 5572 5571 5571 5571 5570 5569 5568 5567 5566 5565 5564 5562
5568 5568 5567 5572 5571 5570 5570 5571 5571 5571 5571 5571 5570 5570 5569 5568 5567 5567 5567 5566 5566 5565 5565 5564 5564 5563 5562 5562 5562 5562 5562 5562 5562 5562 5562 5561 5560 5560 5559 5558 5556 5555 5554 5553
5561 5560 5560 5563 5563 5563 5563 5564 5564 5563 5563 5562 5562 5561 5561 5559 5558 5558 5557 5557 5556 5556 5555 5555 5554 5553 5553 5553 5553 5553 5553 5553 5553 5553 5553 5552 5551 5550 5549 5548 5547 5546 5545 5543
5555 5554 5554 5558 5556 5555 5556 5556 5556 5555 5554 5554 5553 5553 5553 5551 5549 5548 5548 5548 5547 5546 5546 5545 5545 5544 5544 5544 5544 5544 5544 5544 5544 5544 5544 5543 5542 5541 5540 5539 5538 5537 5536 5535
5548 5547 5547 5550 5549 5548 5550 5550 5548 5547 5546 5545 5544 5544 5543 5541 5540 5539 5538 5538 5537 5537 5536 5536 5535 5535 5535 5535 5535 5535 5535 5535 5535 5535 5534 5534 5533 5533 5532 5531 5530 5529 5528 5526
5541 5540 5544 5542 5541 5542 5542 5540 5539 5538 5537 5536 5535 5534 5533 5532 5531 5529 5528 5528 5527 5526 5526 5526 5525 5525 5525 5526 5526 5526 5527 5527 5527 5526 5526 5526 5525 5525 5524 5523 5522 5521 5519 5518
5535 5537 5536 5534 5534 5533 5533 5532 5531 5530 5529 5528 5527 5526 5525 5523 5522 5520 5519 5518 5517 5517 5516 5516 5516 5516 5516 5517 5517 5517 5518 5518 5518 5518 5518 5518 5518 5517 5517 5516 5515 5514 5512 5511
5527 5528 5528 5527 5526 5526 5525 5524 5523 5522 5521 5520 5519 5518 5517 5515 5514 5512 5510 5509 5508 5507 5507 5507 5507 5507 5507 5508 5509 5509 5510 5510 5511 5511 5511 5511 5511 5510 5510 5509 5508 5507 5505 5504
5520 5521 5520 5520 5519 5518 5517 5517 5516 5515 5514 5512 5512 5511 5509 5508 5506 5504 5502 5501 5500 5499 5499 5499 5499 5499 5500 5501 5501 5502 5503 5503 5504 5504 5504 5504 5504 5503 5503 5502 5501 5500 5498 5497
5514 5514 5513 5513 5512 5511 5511 5510 5509 5508 5507 5506 5505 5504 5502 5500 5499 5497 5495 5494 5493 5492 5492 5492 5492 5493 5493 5494 5495 5495 5496 5497 5497 5497 5498 5497 5497 5497 5496 5495 5494 5493 5492 5491
5508 5507 5506 5506 5505 5505 5504 5503 5502 5502 5501 5500 5498 5497 5495 5494 5492 5490 5489 5487 5486 5486 5486 5486 5487 5487 5487 5488 5489 5489 5490 5491 5491 5491 5491 5491 5491 5490 5490 5489 5488 5487 5486 5485
5501 5500 5500 5500 5499 5498 5498 5497 5496 5495 5494 5493 5491 5490 5488 5487 5485 5484 5482 5481 5481 5481 5480 5481 5481 5482 5482 5482 5483 5484 5484 5485 5485 5486 5486 5485 5485 5485 5484 5483 5482 5481 5480 5479
5495 5494 5494 5494 5493 5492 5491 5490 5489 5488 5487 5486 5484 5483 5482 5480 5479 5478 5476 5476 5475 5475 5475 5476 5476 5476 5477 5477 5478 5478 5479 5480 5480 5480 5480 5480 5480 5479 5478 5478 5477 5476 5475 5474
5489 5488 5488 5488 5487 5486 5485 5484 5483 5482 5480 5479 5477 5476 5475 5474 5473 5472 5471 5471 5471 5470 5471 5471 5471 5471 5472 5472 5473 5473 5474 5474 5475 5475 5475 5475 5474 5474 5473 5472 5471 5470 5469 5468
5483 5483 5482 5481 5481 5480 5479 5478 5477 5475 5474 5472 5471 5469 5468 5467 5467 5466 5466 5466 5465 5465 5465 5466 5466 5467 5467 5467 5468 5468 5469 5469 5470 5470 5470 5470 5470 5469 5468 5467 5466 5465 5465 5464
5477 5477 5476 5475 5475 5474 5473 5472 5470 5469 5467 5466 5464 5463 5462 5461 5461 5460 5460 5460 5460 5460 5460 5461 5461 5462 5462 5462 5463 5463 5464 5464 5465 5465 5465 5465 5465 5464 5464 5463 5462 5461 5460 5459
5472 5471 5470 5470 5469 5468 5467 5465 5464 5463 5461 5460 5459 5458 5457 5456 5455 5455 5455 5455 5455 5455 5455 5456 5456 5457 5457 5458 5458 5459 5459 5460 5460 5460 5461 5461 5460 5460 5459 5459 5458 5457 5456 5455
5467 5466 5465 5464 5463 5462 5461 5459 5458 5457 5456 5454 5453 5453 5452 5451 5451 5450 5450 5450 5450 5450 5451 5451 5451 5452 5453 5453 5454 5454 5455 5455 5455 5456 5456 5456 5456 5456 5455 5454 5454 5453 5452 5451
5461 5461 5460 5459 5458 5457 5455 5454 5453 5451 5450 5449 5448 5448 5447 5447 5446 5446 5445 5446 5446 5445 5446 5446 5447 5448 5448 5449 5449 5450 5450 5451 5451 5451 5452 5452 5451 5451 5450 5450 5449 5448 5448 5447
5456 5455 5455 5454 5453 5452 5450 5449 5448 5447 5446 5444 5444 5443 5443 5442 5442 5441 5441 5441 5441 5441 5441 5442 5442 5443 5444 5445 5445 5446 5446 5446 5447 5447 5447 5447 5447 5446 5446 5445 5445 5444 5443 5443
5450 5450 5449 5448 5447 5446 5445 5444 5443 5442 5441 5440 5439 5438 5438 5438 5437 5437 5437 5437 5437 5437 5437 5438 5438 5439 5440 5440 5441 5441 5442 5442 5442 5442 5442 5442 5442 5442 5441 5441 5440 5440 5439 5439
5445 5444 5444 5443 5442 5441 5440 5439 5438 5437 5436 5435 5435 5434 5433 5433 5433 5432 5432 5432 5432 5433 5433 5434 5434 5435 5436 5436 5437 5437 5437 5438 5438 5438 5438 5437 5437 5437 5437 5436 5436 5436 5435 5435
5439 5439 5437 5437 5436 5435 5434 5433 5433 5432 5431 5431 5430 5429 5429 5429 5428 5428 5428 5428 5428 5428 5429 5429 5430 5431 5432 5432 5433 5433 5433 5433 5433 5433 5433 5433 5433 5432 5432 5432 5431 5431 5431 5431
5434 5433 5432 5431 5430 5429 5429 5428 5427 5426 5426 5425 5425 5424 5424 5424 5423 5423 5423 5424 5424 5424 5425 5426 5426 5427 5428 5428 5429 5429 5429 5429 5429 5429 5428 5428 5428 5428 5427 5427 5426 5426 5426 5426
5428 5427 5426 5426 5425 5424 5423 5422 5422 5421 5420 5420 5420 5419 5419 5419 5419 5419 5419 5419 5420 5420 5421 5422 5423 5423 5424 5424 5424 5424 5424 5424 5424 5424 5424 5423 5423 5423 5422 5422 5422 5421 5422 5422